Location: Elhoten
(49.7291°N, 13.0482°E)
Time: 07:21:40
(UTC+00:00)

Daily predictions for brighter satellites

Satellite Brightness Start Highest point End
(mag) Time Altitude Azimuth Time Altitude Azimuth Time Altitude Azimuth
ATLAS 5 CENTAUR R/B 2.5 19:02:19 10° NW 19:07:55 82° SW 19:14:28 10° SE
SL-4 R/B 3.4 19:07:35 10° S 19:10:07 16° SE 19:12:33 10° E
Cosmos 1697 Rocket 3.0 19:09:46 10° NNW 19:15:19 57° NE 19:20:50 10° SE
MetOp-A 4.4 19:10:34 10° S 19:15:55 73° WSW 19:21:19 10° NNW
Cosmos 2228 Rocket 3.2 19:12:21 10° NNW 19:16:50 83° W 19:21:14 10° S
Cosmos 1833 Rocket 3.3 19:12:23 10° S 19:17:24 35° ESE 19:22:27 10° NE
Cosmos 389 Rocket 2.4 19:16:27 10° N 19:19:53 68° ENE 19:23:19 10° SSE
Cosmos 1812 2.8 19:17:57 10° N 19:21:47 61° ENE 19:25:34 10° SSE
Cosmos 1727 Rocket 4.2 19:15:27 10° N 19:21:50 83° W 19:28:11 10° S
SPOT 3 Rocket 3.6 19:16:52 10° SSE 19:22:06 88° W 19:27:20 10° NNW
Cosmos 1633 Rocket 4.3 19:19:05 10° SE 19:22:38 24° E 19:26:12 10° NE
Cosmos 2251 Rocket 3.7 19:19:02 10° SSW 19:24:18 83° WNW 19:29:39 10° NNE
Cosmos 1656 3.8 19:21:27 10° NNW 19:26:56 75° WSW 19:32:26 10° SSE
Cosmos 1707 Rocket 3.8 19:26:57 10° N 19:31:14 52° ENE 19:35:26 10° SSE
Cosmos 220 Rocket 3.9 19:27:15 10° NNW 19:31:30 89° ENE 19:35:43 10° SSE
Cosmos 1633 4.5 19:28:38 10° SW 19:31:52 33° WNW 19:35:07 10° N
IRIDIUM 104 4.3 19:27:12 10° S 19:32:25 77° E 19:37:39 10° N
Resurs 01 Rocket 1.6 19:28:47 10° SSE 19:33:11 85° ENE 19:37:39 10° NNW
Landsat 7 4.3 19:30:14 10° SE 19:34:45 45° ENE 19:39:17 10° N
Cosmos 1441 Rocket 3.1 19:35:14 10° S 19:39:00 67° E 19:42:45 10° NNE
Cosmos 1934 Rocket 4.4 19:33:52 10° SSE 19:39:50 44° E 19:45:50 10° NNE
IRIDIUM 114 4.4 19:36:20 10° S 19:41:33 90° SW 19:46:49 10° N
Cosmos 2360 4.3 19:36:35 10° NNW 19:42:21 69° ENE 19:47:32 13° SE
Cosmos 614 Rocket 4.0 19:37:40 10° S 19:42:46 66° ESE 19:47:57 10° NNE
NOSS 3-2 (A) 4.5 19:39:36 10° SSE 19:43:47 21° ESE 19:48:20 10° ENE
IGS 5A 3.7 19:41:07 12° SE 19:44:51 52° ENE 19:48:53 10° N
Cosmos 1900 4.5 19:41:15 10° SW 19:46:13 83° NW 19:51:18 10° NE
USA 267 3.3 19:40:37 10° ENE 19:47:06 60° SE 19:53:33 10° SW
GP-B 3.7 19:45:26 10° NNE 19:49:39 40° E 19:53:14 13° SSE
Cosmos 1821 Rocket 4.0 19:46:50 10° S 19:52:58 85° E 19:59:14 10° N
COSMOS 2406 3.2 19:49:27 10° SSW 19:55:13 88° ESE 20:01:00 10° NNE
Shenzhou-11 Module 3.5 19:53:57 10° SW 19:55:19 14° S 19:55:30 14° S
Cosmos 921 Rocket 4.0 19:51:29 10° N 19:55:20 32° ENE 19:58:03 16° ESE
CZ-2C R/B 4.1 19:50:50 10° N 19:55:28 67° WNW 19:59:59 10° SSW
Intercosmos 25 3.9 19:52:58 10° NNW 19:57:41 61° W 20:01:04 10° S
Cosmos 1862 Rocket 3.9 19:53:23 10° N 19:57:46 50° ENE 20:01:00 17° SSE
SL-16 R/B 3.6 19:53:03 10° NNW 19:57:52 27° NE 20:02:26 11° E
ERS-1 Rocket 3.5 19:56:08 16° SE 19:59:55 44° ENE 20:04:41 10° N
Lacrosse 5 2.7 19:56:27 10° NW 20:01:22 46° NNE 20:06:15 10° E
Cosmos 2369 3.8 19:57:24 10° NNW 20:03:10 77° WSW 20:08:05 14° SSE
Cosmos 1862 4.3 20:00:25 10° SSW 20:04:20 49° WNW 20:08:18 10° N
Sich 1 3.2 20:00:46 10° SSW 20:05:12 77° W 20:09:40 10° N
Cosmos 1818 4.1 20:02:39 10° NW 20:07:57 52° WSW 20:12:24 14° SSE
BREEZE-M DEB (TANK) 1.4 20:06:17 10° W 20:09:01 82° S 20:09:55 28° E
Cosmos 2082 Rocket 2.3 20:04:51 10° S 20:10:21 53° ESE 20:15:52 10° NE
Cosmos 1954 Rocket 4.4 20:07:08 10° S 20:12:08 44° ESE 20:17:11 10° NE
Cosmos 2123 Rocket 4.0 20:06:10 10° N 20:12:25 86° E 20:18:06 13° S
Cosmos 2278 3.7 20:06:42 10° NNW 20:12:29 88° ENE 20:16:44 19° SSE
Spot 2 Rocket 3.6 20:11:25 14° SSE 20:15:54 82° WSW 20:21:03 10° NNW
Cosmos 1535 Rocket 4.4 20:09:57 10° S 20:16:05 75° E 20:22:11 10° NNE
Meteor 1-4 Rocket 2.6 20:16:42 10° NNW 20:20:11 69° W 20:22:27 20° S
Cosmos 2322 Rocket 3.4 20:15:22 10° NNW 20:20:25 31° NE 20:24:25 15° ESE
CARTOSAT-1 3.6 20:20:05 23° SSE 20:22:42 65° ENE 20:27:00 10° N
Cosmos 1184 Rocket 2.8 20:21:01 25° S 20:22:44 58° E 20:26:01 10° NNE
Cosmos 1190 Rocket 4.0 20:17:50 10° SSW 20:23:06 85° ESE 20:28:27 10° NNE
USA 234 3.3 20:18:46 19° SE 20:23:41 74° SW 20:30:15 10° WNW
Terra 2.3 20:21:08 22° SE 20:23:51 45° ENE 20:28:23 10° N
Cosmos 407 Rocket 3.7 20:20:45 10° SSW 20:26:05 78° WNW 20:31:24 10° NNE
Cosmos 1933 Rocket 4.1 20:24:16 24° SE 20:26:21 41° E 20:30:32 10° NNE
Cosmos 1605 Rocket 4.0 20:21:08 14° S 20:26:24 62° E 20:32:24 10° NNE
Cosmos 1666 Rocket 3.8 20:22:30 10° SSW 20:26:48 69° WNW 20:31:09 10° N
Meteor 1-20 Rocket 4.4 20:23:25 15° S 20:28:13 60° E 20:34:00 10° NNE
Cosmos 1238 Rocket 2.5 20:28:03 37° SE 20:28:38 43° E 20:31:28 10° NNE
Okean 1 3.7 20:25:49 10° N 20:29:45 48° ENE 20:31:27 29° SE
Cosmos 1602 4.3 20:31:37 30° SE 20:32:56 41° E 20:36:38 10° NNE
ATLAS 3B R/B 4.4 20:34:00 11° E 20:34:00 11° E 20:35:20 10° E
Cosmos 1437 Rocket 3.5 20:30:42 10° N 20:34:15 36° ENE 20:35:27 28° ESE
Cosmos 2360 Rocket 3.8 20:29:49 10° NNW 20:34:28 25° NE 20:38:35 12° E
CZ-4B DEB 4.3 20:35:36 32° S 20:37:01 80° WSW 20:40:23 10° NNW
SPOT 5 2.5 20:35:54 28° SSE 20:38:11 79° ENE 20:42:33 10° NNW
ERBS 4.4 20:35:42 10° WNW 20:38:39 28° NNW 20:41:35 10° NE
USA 238 DEB 3.8 20:32:48 10° SSW 20:39:07 49° ESE 20:45:42 10° NE
USA 238 3.8 20:32:55 10° SSW 20:39:13 49° ESE 20:45:48 10° NE
Meteor 1-19 Rocket 4.3 20:33:56 10° N 20:39:19 60° ENE 20:42:13 27° SE
Iridium 4 Rocket 4.3 20:41:58 23° ESE 20:42:53 24° E 20:46:20 10° NNE
Cosmos 1980 Rocket 2.5 20:37:57 10° NW 20:43:36 63° WSW 20:47:05 23° S
SPOT 1/Viking Rocket 4.0 20:39:53 17° S 20:43:50 59° W 20:49:01 10° NNW
Cosmos 1703 Rocket 3.7 20:41:09 10° N 20:45:28 55° ENE 20:47:06 34° SE
Cosmos 2242 Rocket 3.5 20:41:02 10° N 20:45:30 74° E 20:47:29 32° SSE
Cosmos 1763 Rocket 3.7 20:43:14 10° NNW 20:48:33 61° ENE 20:51:08 30° SE
SL-4 R/B 1.6 20:45:24 10° SW 20:49:14 62° SSE 20:51:35 20° E
Genesis I 3.7 20:45:40 10° NW 20:49:26 49° SW 20:50:44 34° S
BREEZE-M DEB (TANK) 2.8 20:46:53 10° W 20:49:57 88° S 20:59:17 10° E
Cosmos 1500 4.5 20:50:18 24° E 20:50:18 24° E 20:53:20 10° NE
Cosmos 405 Rocket 2.5 20:49:21 40° SSE 20:50:30 65° E 20:54:12 10° NNE
Cosmos 1140 Rocket 4.0 20:46:35 10° SW 20:51:47 62° WNW 20:57:01 10° NNE
ATLAS 5 CENTAUR R/B 4.3 20:47:59 10° WNW 20:52:08 20° WSW 20:56:38 10° SSW
Cosmos 2333 Rocket 4.3 20:50:17 10° N 20:54:18 19° NE 20:58:20 10° E
FAST 4.2 20:51:46 10° N 20:54:36 76° E 20:54:41 75° ESE
USA 32 4.3 20:53:02 14° SSW 20:57:30 67° W 21:02:44 10° N
Cosmos 1697 Rocket 4.2 20:54:16 10° NW 20:58:57 28° WSW 21:03:04 12° SSW
Cosmos 1633 Rocket 4.3 20:56:03 10° SW 21:00:13 39° WNW 21:04:24 10° N
Cosmos 1459 Rocket 4.5 20:58:05 29° SE 21:00:48 45° E 21:06:47 10° NNE
Cosmos 1833 Rocket 3.7 20:55:48 10° SW 21:01:12 47° NW 21:06:39 10° NNE
Meteor 1-18 Rocket 4.2 21:01:19 10° NNW 21:06:57 77° W 21:09:50 30° S
Okean 1-7 2.9 21:02:48 10° N 21:07:10 81° E 21:08:30 44° SSE
Cosmos 1153 Rocket 4.4 21:03:26 24° S 21:07:15 80° E 21:13:27 10° NNE
Cosmos 1867 3.5 21:02:07 10° SW 21:07:34 87° NW 21:13:05 10° NE
CENTAUR R/B 2.8 21:04:46 28° S 21:07:37 46° ESE 21:14:14 10° NE
Resurs 01 Rocket 4.3 21:08:29 10° WSW 21:10:19 12° W 21:12:09 10° WNW
Okean 3 4.1 21:09:05 10° N 21:13:10 40° ENE 21:13:59 36° ESE
FALCON 9 DEB 3.0 21:11:25 10° WSW 21:14:55 78° SSE 21:15:22 64° E
Cosmos 1802 Rocket 4.4 21:13:52 32° SE 21:16:21 48° E 21:22:25 10° NNE
Cosmos 1850 Rocket 4.0 21:14:18 35° S 21:16:23 61° ESE 21:21:36 10° NNE
Meteor 2-4 Rocket 3.7 21:10:56 10° N 21:16:40 75° ENE 21:18:53 38° SSE
Cosmos 1515 3.7 21:13:43 10° NNW 21:17:34 72° W 21:18:22 52° SSW
SL-27 R/B 3.7 21:19:37 28° ENE 21:19:37 28° ENE 21:21:37 10° NE
Cosmos 44 3.7 21:16:23 10° NW 21:21:11 59° NE 21:23:08 35° ESE
ATLAS 5 CENTAUR R/B 2.2 21:18:52 10° NW 21:21:26 59° NE 21:23:25 31° ESE
SWARM A 4.4 21:19:19 10° N 21:22:37 62° W 21:22:57 57° WSW
Spot 4 4.3 21:27:26 38° ESE 21:28:44 48° ENE 21:33:22 10° N
USA 267 3.7 21:23:43 10° ENE 21:30:11 64° NNW 21:36:38 10° W
Cosmos 921 Rocket 4.4 21:29:52 10° NW 21:33:33 29° W 21:34:51 24° SW
NOSS 3-2 (A) 3.4 21:27:52 10° SW 21:33:40 85° NW 21:40:25 10° NE
ERS-1 Rocket 4.5 21:36:09 18° SW 21:38:52 29° W 21:43:13 10° NW
NOSS 3-2 (C) 3.3 21:35:51 24° SSW 21:39:32 73° SE 21:46:09 10° NE
Cosmos 841 Rocket 3.4 21:35:18 10° NNW 21:40:34 85° ENE 21:42:00 49° SSE
Cosmos 540 Rocket 3.4 21:36:48 10° NNW 21:42:00 85° ENE 21:43:22 51° SSE
SL-16 R/B 2.2 21:36:50 10° NNW 21:42:31 70° WSW 21:44:17 44° S
Lacrosse 5 1.8 21:39:31 10° WNW 21:44:34 67° SW 21:45:31 54° SSE
Cosmos 1741 Rocket 4.1 21:48:23 33° SSW 21:50:49 78° WNW 21:56:09 10° NNE
Cosmos 1570 Rocket 4.0 21:46:30 10° NNW 21:51:50 77° WSW 21:53:10 51° S
Tsikada Rocket 4.2 21:46:26 10° N 21:52:48 64° ENE 21:54:55 42° SE
Cosmos 2219 Rocket 3.5 21:48:30 10° NNW 21:53:38 33° NE 21:56:38 21° E
Cosmos 2208 Rocket 3.9 21:48:38 10° NNW 21:53:58 87° WSW 21:55:11 54° SSE
Cosmos 1814 Rocket 3.9 21:49:06 10° NNW 21:54:20 90° E 21:55:32 55° SSE
Cosmos 2082 Rocket 3.8 21:49:33 10° WSW 21:54:42 34° NW 21:59:51 10° NNE
Cosmos 2084 Rocket 3.8 21:59:01 48° E 21:59:01 48° E 22:02:26 10° NE
Cosmos 2237 4.2 21:53:13 10° NNW 21:58:58 83° ENE 22:00:34 49° SE
Terra 3.4 22:00:02 21° SW 22:01:47 26° W 22:05:46 10° NW
Cosmos 2322 Rocket 2.4 21:59:15 10° NW 22:04:50 59° WSW 22:06:13 46° SSW
EO 1 Del DPAF 3.8 22:01:53 10° NNE 22:04:57 47° ENE 22:04:57 47° ENE
USA 234 4.5 22:06:06 23° SW 22:07:27 25° SW 22:12:38 10° WNW
Cosmos 2100 Rocket 4.3 22:05:35 30° SW 22:08:40 60° WNW 22:14:46 10° N
Meteor 1-11 Rocket 3.6 22:09:09 52° S 22:10:37 82° E 22:16:23 10° NNE
Cosmos 1242 Rocket 3.0 22:09:02 10° N 22:12:07 57° NNE 22:12:07 57° NNE
Helios 1A 4.4 22:13:11 27° E 22:13:46 28° ENE 22:17:23 10° N
Cosmos 2360 Rocket 2.1 22:13:26 10° NNW 22:19:08 79° WSW 22:20:19 57° S
COSMOS 2428 3.6 22:14:41 10° NNW 22:20:11 44° NE 22:22:36 29° ESE
ATLAS 3B R/B 2.6 22:21:13 48° SSE 22:22:36 58° ESE 22:29:05 10° NE
Iridium 4 Rocket 4.2 22:21:45 31° WSW 22:22:44 35° W 22:26:40 10° NNW
ALOS 2 2.4 22:27:44 83° SE 22:27:53 87° ENE 22:32:18 10° NNW
SL-4 R/B 3.2 22:25:10 10° W 22:27:12 29° WNW 22:27:12 29° WNW
Cosmos 1725 Rocket 4.0 22:27:20 44° SSW 22:29:28 78° W 22:35:51 10° N
USA 238 DEB 4.4 22:23:34 10° WSW 22:30:06 52° NW 22:36:57 10° NE
USA 238 4.4 22:23:41 10° WSW 22:30:12 52° NW 22:37:03 10° NE
Nimbus 7 Rocket 4.3 22:25:07 10° NNE 22:31:00 70° ESE 22:32:15 54° SSE
Cosmos 1674 Rocket 3.4 22:28:54 10° NNW 22:33:13 83° W 22:33:13 83° W
Cosmos 1536 3.1 22:34:39 61° WNW 22:34:39 61° WNW 22:38:30 10° N
Cosmos 1666 3.5 22:37:32 44° WNW 22:37:32 44° WNW 22:40:59 10° N
Cosmos 1743 3.4 22:38:17 48° NE 22:38:17 48° NE 22:41:26 10° NNE
Cosmos 2333 Rocket 2.4 22:33:55 10° NNW 22:39:43 68° ENE 22:41:19 47° ESE
Cosmos 1271 Rocket 3.1 22:37:34 10° N 22:40:47 59° NNE 22:40:47 59° NNE
Cosmos 2237 Rocket 3.7 22:38:48 10° NNW 22:43:46 30° NE 22:47:33 15° E
Cosmos 2061 Rocket 4.5 22:41:23 33° SW 22:43:54 53° WNW 22:49:59 10° N
Lacrosse 4 Rocket 2.3 22:45:23 39° ENE 22:45:23 39° ENE 22:48:24 10° NE
Cosmos 1733 Rocket 3.5 22:50:59 50° W 22:51:19 51° WNW 22:55:38 10° N
Meteor 2-11 Rocket 4.4 22:51:23 56° SSE 22:52:42 76° E 22:58:49 10° NNE
Thor Agena Rocket 4.2 22:50:37 10° N 22:55:30 48° WNW 22:57:00 37° WSW
Cosmos 44 Rocket 3.8 22:51:13 10° NW 22:56:08 58° NE 22:57:31 43° E
Cosmos 836 Rocket 4.3 22:52:16 10° NNW 22:57:30 85° WSW 22:58:03 72° S
CENTAUR R/B 3.3 22:52:07 10° WSW 22:58:14 53° NW 23:05:31 10° NE
Cosmos 968 Rocket 3.4 22:59:01 64° SE 22:59:13 65° ESE 23:04:19 10° NNE
Cosmos 1975 3.5 23:02:22 46° ENE 23:02:22 46° ENE 23:05:42 10° NNE
SL-24 DEB 4.1 23:00:14 10° N 23:05:03 88° E 23:05:18 81° S
Resurs 1-4 Rocket 4.5 23:06:09 10° ENE 23:06:42 10° E 23:07:14 10° E
Cosmos 1354 Rocket 4.4 23:07:09 47° ESE 23:07:23 47° ESE 23:12:30 10° NNE
Cosmos 1782 Rocket 3.8 23:10:37 57° ENE 23:10:37 57° ENE 23:14:39 10° NNE
USA 267 4.2 23:06:30 10° ENE 23:12:43 47° N 23:18:54 10° WNW
Cosmos 1378 4.5 23:09:47 10° NNW 23:12:29 33° WNW 23:12:29 33° WNW
Cosmos 1707 4.0 23:12:39 10° N 23:16:13 34° ENE 23:16:13 34° ENE
Cosmos 2233 Rocket 4.4 23:14:31 39° SW 23:16:34 55° WNW 23:22:48 10° N
Cosmos 1464 Rocket 4.1 23:15:36 51° SSE 23:17:04 66° E 23:23:12 10° NNE
Cosmos 1842 3.6 23:14:17 10° N 23:17:41 64° NNW 23:17:41 64° NNW
Cosmos 1908 Rocket 3.6 23:18:33 68° WNW 23:18:33 68° WNW 23:22:53 10° N
Helios 1B rocket 3.6 23:18:29 10° NNE 23:21:48 33° E 23:21:48 33° E
CZ-4 R/B 4.3 23:17:46 10° NNE 23:22:39 51° E 23:23:00 50° ESE
Cosmos 2227 Rocket 3.9 23:22:42 18° ESE 23:23:24 19° E 23:27:12 10° ENE
Meteor 1-21 4.2 23:18:19 10° NNW 23:24:11 87° ENE 23:25:21 59° SSE
SL-16 R/B 4.4 23:23:32 10° WNW 23:25:33 12° W 23:26:08 12° WSW
Lacrosse 5 4.1 23:23:51 10° W 23:24:41 12° W 23:24:41 12° W
Cosmos 2322 4.1 23:23:54 10° NW 23:29:15 44° WSW 23:29:31 44° WSW
COSMOS 2487 4.0 23:32:14 29° NW 23:32:14 29° NW 23:34:58 10° N
Nadezhda 4 Rocket 4.0 23:29:54 10° N 23:36:14 77° E 23:38:03 49° SSE
Cosmos 2219 Rocket 2.3 23:32:20 10° NW 23:37:53 54° WSW 23:38:19 53° SW
Cosmos 783 Rocket 4.3 23:36:34 10° NNW 23:41:50 77° WSW 23:42:23 68° SSW
Cosmos 1975 Rocket 3.3 23:38:07 10° NNW 23:42:25 60° W 23:42:25 60° W
Okean 2 Rocket 3.4 23:45:22 54° ESE 23:45:29 54° E 23:49:54 10° NNE
Cosmos 2034 Rocket 4.0 23:43:53 51° SSE 23:45:32 77° E 23:51:52 10° NNE
Cosmos 1503 Rocket 4.0 23:45:55 61° SW 23:46:52 79° WNW 23:52:17 10° NNE
Cosmos 1072 Rocket 4.5 23:46:51 51° SW 23:48:24 72° WNW 23:54:32 10° N
Helios 1A 4.1 23:49:48 33° W 23:49:48 33° W 23:53:06 10° NNW
Landsat 4 4.0 23:45:51 10° NNE 23:49:12 64° NNW 23:49:12 64° NNW
SL-16 R/B 3.5 23:46:15 19° SE 23:50:20 43° ENE 23:56:12 10° N
Cosmos 1092 Rocket 4.2 23:44:13 10° N 23:50:27 63° ENE 23:52:45 39° SE
ERBS 4.1 23:49:14 10° NW 23:51:02 28° NW 23:51:02 28° NW
Cosmos 1300 Rocket 3.7 23:52:28 59° E 23:52:29 59° E 23:56:45 10° NNE
GEOS 3 Rocket 4.4 23:47:57 10° NE 23:52:57 37° ESE 23:53:18 37° SE
CZ-2D R/B 3.7 23:48:35 10° NE 23:53:07 25° E 23:54:54 22° ESE
SL-16 R/B 3.5 23:48:44 10° NNW 23:54:01 37° NE 23:59:16 10° ESE
Cosmos 1544 4.5 23:54:38 31° WNW 23:54:38 31° WNW 23:57:31 10° N
Sich 1 Rocket 3.5 23:55:31 79° W 23:55:33 79° W 23:59:58 10° N
